RH
87 82 84 82 80 87 88 87 89 90 90 86 88 80 88 88 92 77 76 73 81 89 86 86 87 79 77 83 79 62 62 64 67 90 82 72 82 72 84 75 70 62 57 52 59 65 65
88 86 85 84 83 82 89 90 87 92 91 88 90 84 90 91 92 87 86 87 84 89 86 89 87 78 82 92 56 65 63 58 65 88 76 73 72 70 63 68 73 61 51 56 61 63 55
89 87 87 84 84 81 83 82 84 93 92 91 90 88 91 89 89 88 84 83 88 90 90 89 88 76 81 73 61 63 58 63 69 83 74 77 56 73 62 66 54 52 68 58 52 49 49
91 88 86 85 82 84 79 88 91 91 92 92 92 88 93 86 81 83 76 88 78 80 92 92 85 81 90 50 57 58 55 83 79 77 68 74 58 66 56 51 52 55 60 70 51 49 42
92 90 90 88 86 85 84 82 82 90 94 94 93 95 94 91 85 72 58 65 85 82 89 77 73 78 80 52 56 56 59 80 98 88 68 72 64 66 56 70 72 59 86 73 57 47 46
93 91 84 89 90 87 85 85 84 80 87 85 93 92 92 89 78 71 71 53 68 70 73 76 73 76 60 61 56 64 73 69 90 88 83 78 82 83 76 76 83 74 78 63 60 47 49
95 93 92 92 91 95 91 88 87 86 84 89 89 94 97 84 70 87 75 66 72 69 64 68 62 71 52 50 55 77 75 90 90 90 96 78 90 89 76 60 59 63 59 64 51 43 47
96 94 94 93 89 86 86 88 91 91 88 88 91 92 95 94 69 64 68 78 77 73 81 59 64 61 56 46 70 78 82 98 92 96 80 90 88 73 67 60 56 58 66 62 44 39 47
97 95 95 94 94 93 93 93 92 89 96 91 89 89 98 97 67 64 68 69 71 77 91 72 72 81 79 70 78 89 90 88 84 93 77 75 76 67 68 64 67 58 62 57 48 47 44
97 96 96 96 96 96 94 94 93 92 92 95 93 96 98 94 87 66 72 70 72 81 93 92 79 78 79 81 84 89 96 89 94 90 72 74 65 67 72 70 59 66 46 44 50 60 74
97 97 96 97 99 98 96 94 94 94 95 96 95 99 99 99 80 77 68 61 77 78 89 87 92 78 75 84 81 82 87 72 90 92 80 97 78 74 75 67 53 60 44 54 59 66 64
92 96 96 94 94 97 95 96 94 94 97 96 97 99 96 86 96 71 63 78 81 81 90 96 89 89 89 88 84 76 86 76 83 79 84 87 78 87 86 80 62 57 59 67 76 74 86
82 97 97 95 96 95 99 94 93 93 94 85 71 98 86 88 84 75 78 85 86 93 72 80 95 87 80 83 84 79 87 88 92 97 96 95 91 84 85 82 72 64 63 97 94 94 84
72 92 94 96 94 92 87 91 94 93 92 78 67 52 61 77 80 79 79 85 86 84 78 69 81 77 82 83 85 84 86 92 84 84 90 94 99 94 85 84 86 80 78 89 85 96 83
71 71 93 96 92 94 93 94 93 92 88 73 74 65 78 74 80 78 89 89 84 89 76 78 73 84 83 78 87 90 92 77 81 84 84 94 99 87 84 88 81 95 99 60 74 67 88
66 74 98 96 94 94 95 94 92 91 88 77 76 80 78 79 81 84 91 87 86 78 60 57 81 67 87 80 86 92 98 75 80 76 71 87 97 95 88 82 89 95 74 82 92 96 76
67 91 97 96 93 94 95 95 94 90 94 74 85 87 84 83 83 93 93 95 83 66 53 57 62 58 64 74 74 84 89 71 70 77 79 80 77 98 94 94 87 98 99 86 73 86 91
70 87 92 93 94 96 95 95 95 88 95 73 90 95 86 85 99 98 93 84 59 55 51 54 52 53 55 54 52 56 69 59 52 60 66 66 84 94 88 74 74 75 86 70 91 86 80
68 80 93 93 96 96 95 94 94 84 88 91 98 91 93 93 97 73 72 65 63 58 51 48 52 50 49 51 56 60 63 53 51 52 63 63 85 99 95 83 82 97 89 76 79 77 86
70 74 93 95 96 96 95 93 86 54 64 83 91 95 94 99 93 78 69 69 66 56 56 44 46 45 50 51 47 62 65 55 51 49 46 53 78 76 84 69 81 93 96 86 93 97 74
63 74 95 92 95 93 95 96 78 41 59 74 94 93 84 97 84 75 68 55 65 70 58 46 49 49 53 56 54 60 65 64 54 51 51 56 78 74 67 66 71 74 80 91 97 77 78
64 74 87 87 85 92 95 94 77 43 50 68 92 90 79 95 91 79 68 62 60 62 62 60 56 53 50 51 53 59 65 66 62 58 56 67 90 80 78 63 62 73 70 83 89 87 86
62 73 80 78 80 88 95 95 88 65 37 69 78 76 90 83 85 77 82 71 78 64 57 54 54 62 63 60 53 47 51 53 52 64 67 71 86 89 87 80 72 78 72 70 72 70 77
58 75 75 76 74 82 95 95 88 74 64 62 76 87 91 88 70 71 66 69 75 78 78 67 63 58 54 47 48 45 48 53 57 56 62 80 77 87 94 80 94 59 48 59 60 52 62
59 72 81 82 75 73 95 96 95 83 78 77 72 80 91 79 76 56 59 70 76 81 72 66 70 67 71 55 66 66 69 60 56 57 59 66 60 90 94 95 67 50 60 64 70 64 53
64 74 88 82 72 72 87 90 92 78 77 76 76 74 86 85 74 64 62 67 92 93 88 75 70 68 65 78 71 78 86 68 66 59 61 57 55 74 85 78 85 53 55 50 52 82 57
67 79 88 88 68 70 85 87 86 84 78 74 80 74 80 92 78 70 67 70 69 72 85 82 84 80 70 86 79 80 77 55 74 68 74 75 74 84 79 88 79 52 48 51 83 68 68
71 80 86 83 70 73 86 90 92 85 90 84 86 80 74 94 89 71 60 65 70 69 86 82 90 84 91 88 86 82 69 63 68 59 74 80 81 83 79 86 89 48 61 71 63 66 66
72 83 87 80 76 76 85 90 89 93 93 85 86 86 86 89 86 76 74 73 70 66 67 68 92 86 89 97 93 93 81 77 74 79 67 76 66 70 72 71 50 52 56 56 70 70 63
Wind_Speed
16 18 19 20 20 19 18 18 19 20 23 23 26 27 26 21 12 5 4 2 2 3 2 3 4 1 5 4 10 12 18 19 31 29 26 6 5 7 5 5 6 3 13 9 7 12 13
16 17 19 19 19 20 19 18 19 20 21 23 25 26 21 17 11 8 7 4 2 3 3 3 2 2 2 8 6 5 22 12 36 35 23 11 8 6 5 5 10 7 2 9 7 9 11
15 16 18 19 19 19 19 19 18 19 21 22 23 23 17 14 9 7 6 4 2 1 1 1 2 2 2 10 3 8 19 17 23 26 13 15 10 6 6 4 3 5 7 5 6 7 8
13 15 18 18 18 19 19 20 20 19 20 20 20 20 15 13 10 6 6 5 4 4 3 4 4 1 5 6 7 13 7 0 13 21 22 24 12 5 2 3 4 5 5 5 5 9 7
11 13 16 17 18 19 20 20 20 20 19 19 19 18 15 11 10 7 6 5 5 8 2 1 2 1 6 9 5 13 3 4 3 12 20 15 5 4 3 7 4 3 6 7 7 10 6
10 12 15 17 18 18 19 20 20 20 19 18 18 17 16 10 8 10 8 2 3 3 4 1 2 1 3 4 4 5 2 4 5 10 11 6 4 4 4 6 16 14 6 7 9 13 6
9 11 14 15 18 18 19 20 20 20 20 19 17 16 14 13 8 11 12 2 4 3 3 2 4 3 7 9 4 10 6 7 2 10 6 11 6 14 9 4 6 8 6 6 3 4 7
8 10 13 14 16 18 20 21 21 20 20 19 19 16 13 11 8 7 5 4 1 1 4 1 6 3 9 3 1 7 5 5 4 15 12 7 8 4 8 3 4 9 8 6 2 3 8
7 9 12 14 16 18 20 21 21 23 22 20 20 16 15 9 5 2 3 2 2 2 1 2 2 3 3 5 4 3 3 2 13 11 17 10 7 7 8 2 4 2 5 4 4 3 2
7 9 11 14 16 18 20 21 22 23 23 23 22 18 12 7 3 1 2 3 1 1 3 7 5 4 4 1 5 5 4 1 4 14 10 6 5 7 8 4 4 2 5 5 6 5 4
7 8 10 14 16 18 20 21 22 23 24 24 24 19 9 4 3 4 3 3 1 2 5 5 4 8 8 3 3 5 6 5 7 9 4 1 4 9 5 3 5 5 3 7 4 4 3
7 8 10 13 16 19 21 23 24 26 26 27 25 18 4 5 6 3 3 0 1 5 1 1 5 1 4 3 2 3 7 6 3 8 8 4 2 4 2 2 3 4 6 8 5 3 1
7 8 10 12 15 19 21 24 26 26 27 28 21 11 5 5 2 6 3 2 4 5 3 4 3 4 7 3 4 3 1 3 3 4 4 4 4 2 2 5 4 4 5 2 1 1 8
7 7 10 12 15 18 22 24 25 26 28 30 13 1 5 4 5 4 3 3 7 4 3 0 1 5 3 4 4 2 5 2 3 5 4 5 3 1 2 2 5 3 4 5 6 4 4
6 7 10 13 16 18 21 23 27 28 31 27 4 3 2 6 6 4 3 4 7 5 4 4 2 2 0 2 5 3 2 6 4 7 5 4 2 1 2 2 2 3 5 4 4 2 3
5 6 9 13 16 19 20 23 27 29 31 18 1 2 2 6 5 2 3 3 2 3 2 3 3 6 3 5 5 5 4 5 5 5 5 6 4 3 3 2 2 1 1 1 2 3 4
4 5 9 12 16 18 21 23 26 30 30 13 2 2 2 6 4 1 2 5 3 5 3 2 2 2 3 4 5 5 8 4 6 7 6 6 4 4 5 7 10 5 4 4 2 4 4
2 5 9 12 15 17 21 24 26 28 25 11 2 3 6 9 1 2 1 4 2 2 2 3 1 2 0 2 2 2 5 3 5 7 6 6 5 4 2 3 4 3 6 5 3 4 2
1 4 8 12 15 16 20 23 26 26 17 3 1 1 6 2 1 1 3 2 2 1 2 0 2 1 2 2 2 2 2 1 3 4 6 5 0 3 2 1 2 6 6 7 1 2 6
1 3 8 11 14 16 20 23 26 26 14 2 2 2 1 2 2 3 2 3 3 2 2 1 2 1 1 1 2 2 2 1 3 2 3 5 3 5 6 4 5 5 10 13 7 4 4
2 3 6 10 13 15 19 22 25 26 10 2 3 2 2 2 1 3 4 1 3 3 3 1 1 3 3 3 2 3 2 1 2 2 2 3 4 2 4 2 4 4 6 14 17 15 8
5 3 5 9 12 15 17 19 24 27 7 8 3 2 2 3 5 5 2 2 2 1 4 3 2 1 3 4 6 6 5 3 4 1 2 2 1 2 4 3 2 4 6 9 15 15 17
7 3 5 8 11 13 16 17 20 24 13 6 4 2 1 3 4 1 4 4 4 3 1 3 2 1 4 4 2 0 4 5 5 7 4 3 4 3 3 4 5 7 12 14 8 10 13
9 5 4 8 10 12 14 14 16 19 19 10 4 1 2 1 3 2 5 5 5 6 2 3 2 1 1 2 0 4 5 5 6 3 4 5 5 3 2 3 1 6 2 7 16 14 13
11 7 3 6 9 8 10 13 15 12 14 14 12 3 2 1 2 4 9 4 6 5 2 2 1 1 2 3 3 3 3 3 3 5 4 4 4 2 3 3 7 5 2 5 6 7 14
13 9 3 4 6 5 8 11 11 12 13 9 15 9 3 2 0 3 4 3 3 4 5 2 3 3 4 2 2 4 4 5 3 3 4 2 2 4 2 3 5 4 3 3 3 5 1
14 10 4 0 2 4 6 8 9 9 10 7 6 11 4 2 3 3 1 2 4 4 3 4 6 4 3 2 1 3 3 3 4 4 4 3 1 5 6 3 6 7 5 1 2 5 5
15 10 5 2 0 3 5 7 7 9 7 6 3 3 2 2 4 2 1 2 3 2 3 6 3 2 2 2 3 3 3 4 3 2 6 6 5 3 4 4 7 3 2 4 4 2 3
15 10 5 4 0 4 4 7 8 10 7 7 4 4 4 2 4 8 17 18 14 15 1 3 5 4 3 1 0 1 2 1 4 2 2 3 6 4 7 5 5 5 5 4 4 3 2
Wind_Direction
352 354 357 359 360 359 355 352 349 349 351 350 352 351 350 349 351 39 37 91 53 28 37 2 349 89 151 165 249 268 310 279 201 215 200 163 159 173 173 163 176 141 173 180 180 155 179
352 355 356 357 358 355 353 353 350 348 352 353 356 357 5 16 41 53 73 75 53 44 68 354 339 163 245 244 266 287 335 196 180 201 189 169 175 188 115 173 168 165 103 116 159 172 150
354 352 353 356 355 356 353 355 349 349 353 356 360 2 12 18 26 50 40 39 61 2 345 5 312 175 222 248 231 275 340 178 186 190 168 179 189 171 134 138 202 164 149 163 166 189 199
353 352 351 351 354 356 354 354 353 349 351 355 358 2 4 4 358 25 27 358 351 303 283 263 282 167 253 296 297 283 343 143 190 203 184 185 202 193 169 173 116 125 113 158 234 162 207
351 350 347 350 353 355 354 356 355 351 350 350 354 359 356 1 356 19 40 355 351 8 162 114 125 119 277 324 112 290 357 99 155 193 192 171 149 179 182 130 103 193 159 179 178 196 159
348 349 346 352 353 353 354 355 356 352 350 348 349 352 354 351 352 344 354 24 11 66 84 67 284 329 274 312 323 100 110 351 234 173 193 136 158 161 164 167 185 191 161 193 176 199 188
343 345 344 351 352 352 354 356 354 352 350 347 342 345 348 350 344 340 343 80 22 352 38 211 276 239 286 301 291 83 105 245 151 171 154 176 166 196 172 121 146 116 113 152 193 195 184
338 342 343 350 352 354 356 355 353 351 349 347 340 336 334 340 343 345 359 89 209 221 339 344 259 283 280 283 106 85 152 238 156 146 137 149 195 168 128 190 117 149 175 179 138 219 192
332 339 344 347 349 351 351 351 352 350 345 345 338 331 325 320 333 8 38 179 139 346 120 17 324 316 329 5 38 46 302 34 133 163 153 148 158 145 159 178 143 90 151 181 153 90 77
328 335 344 345 348 348 348 350 349 347 345 343 335 328 318 302 261 156 255 197 206 342 79 1 354 17 5 343 48 18 274 89 189 135 144 96 159 143 155 185 123 143 209 190 179 139 188
322 334 346 345 346 346 344 343 346 343 343 340 336 326 311 229 302 162 237 171 341 111 66 351 13 328 330 53 121 340 25 67 80 102 105 109 113 145 147 159 141 219 196 159 112 100 107
317 336 347 344 347 342 341 343 344 344 340 339 338 329 279 201 235 212 160 245 293 41 340 350 164 250 1 299 102 68 26 38 313 78 57 60 30 56 105 89 105 141 87 47 55 73 295
313 340 346 344 342 343 340 342 342 343 340 339 337 322 206 181 213 160 163 92 40 66 322 321 318 147 156 123 85 40 40 50 112 94 48 40 11 41 339 87 18 80 94 44 354 317 232
307 338 344 345 344 342 342 340 340 342 338 340 341 229 198 202 180 192 147 61 69 232 189 263 237 308 94 147 52 46 127 109 8 82 134 151 173 193 337 94 158 124 99 166 189 204 238
302 332 347 350 348 342 341 343 340 342 341 344 355 154 184 210 200 195 71 50 175 196 214 178 142 227 131 144 121 139 281 183 185 190 130 154 128 203 334 114 179 175 192 205 114 79 64
297 335 353 356 351 346 346 344 344 346 343 346 254 159 289 166 194 118 67 189 165 203 264 164 195 190 159 164 159 159 184 185 193 182 154 188 124 211 142 107 2 152 322 179 355 152 250
294 345 356 357 352 352 348 349 351 349 349 359 97 83 130 173 162 87 140 227 224 227 213 198 201 219 169 172 158 181 190 190 180 181 177 154 122 144 161 206 183 174 188 224 124 157 188
284 345 1 359 354 354 350 351 353 353 354 16 23 62 159 162 278 187 164 206 267 187 164 273 251 10 102 172 172 106 159 164 175 146 181 179 135 151 202 213 225 213 207 198 181 217 228
248 351 4 359 359 357 354 354 353 353 354 338 61 151 171 234 267 251 291 284 296 217 211 160 208 208 34 23 69 85 102 60 58 139 164 175 38 91 54 194 221 218 195 201 149 46 207
192 13 13 4 3 2 359 357 358 358 2 93 81 80 118 211 271 297 197 245 281 275 262 204 203 84 107 107 58 148 118 23 34 74 102 107 144 165 187 199 138 203 199 197 176 188 194
161 48 19 10 7 8 5 6 4 5 14 95 31 23 55 278 231 334 311 184 182 269 271 183 270 217 153 181 149 152 129 66 13 66 89 116 180 132 247 197 158 212 190 193 213 221 211
163 90 29 15 13 11 7 8 9 14 40 72 98 61 358 285 299 302 346 243 216 231 175 269 214 319 215 202 193 198 141 183 203 124 121 27 144 83 322 279 258 271 255 213 216 228 245
165 129 50 23 23 13 9 7 15 22 37 69 24 17 210 273 335 35 356 340 2 355 288 251 207 301 128 176 160 297 183 179 169 161 167 119 126 82 275 354 350 298 228 215 216 213 215
166 152 74 31 28 18 14 19 27 34 49 73 48 90 64 299 43 30 349 316 353 319 298 300 1 206 6 303 233 63 59 81 130 156 145 138 118 106 224 22 316 242 199 212 220 233 217
168 171 124 36 31 25 10 15 17 26 34 52 40 68 91 67 313 341 345 324 322 313 276 261 313 218 273 44 67 72 355 29 201 177 161 158 170 137 148 200 287 290 197 170 174 266 223
173 174 169 31 36 31 19 7 12 32 31 69 44 37 77 77 331 284 321 323 329 326 329 312 330 322 70 87 192 176 190 204 192 196 134 184 164 133 209 251 252 256 301 220 157 289 14
178 173 178 58 48 23 17 21 14 27 24 46 65 29 84 53 267 22 37 307 332 331 289 302 338 355 44 100 129 219 237 198 184 198 167 150 158 177 226 246 283 255 257 100 89 254 318
176 175 185 200 14 4 10 9 2 356 353 30 84 54 89 177 275 229 2 73 341 27 307 357 280 334 36 140 152 232 174 230 156 196 170 167 176 191 197 218 271 221 66 180 231 295 322
175 177 194 196 29 12 8 360 359 0 26 61 70 15 322 183 244 291 286 273 245 235 237 311 325 325 1 244 158 352 255 146 166 236 62 196 187 187 178 213 244 240 220 241 184 187 236